Regional Weather Roundup
Issued by NWS Midland/Odessa, TX

Skip options and go directly to product.
Home | Oldest Version | Next Version | Current Version | All | Text Only | Save Text | Print | Product List | Glossary On

Skip product version selection by date and time.   
015
ASUS44 KMAF 010902
RWRMAF
MIDLAND AREA WEATHER ROUNDUP
NATIONAL WEATHER SERVICE MIDLAND TX
400 AM CDT MON SEP 01 2014

...IN SOUTHWEST TEXAS AND SOUTHEAST NEW MEXICO...

CITY           SKY/WX    TMP DP  RH WIND       PRES   REMARKS
ALPINE         CLEAR     76  59  56 SW13      30.09S
ANDREWS        FAIR      79  61  54 S13G20    29.92F
ARTESIA        NOT AVBL
BIG SPRING     CLEAR     81  63  54 S14       29.92F
CARLSBAD       CLEAR     76  58  53 S6        29.90S
DRYDEN           N/A     84  64  50 E6        29.89F
FORT STOCKTON  CLEAR     79  62  56 S17       29.92S
GUAD PASS      CLEAR     76  44  32 W13       30.11S
HOBBS          CLEAR     75  61  60 S13G20    29.95S
MARFA          CLEAR     63  55  77 NE5       30.10S
MIDLAND AIRPK  NOT AVBL
MIDLAND INTL   CLEAR     81  62  52 S16       29.91S
ODESSA         CLEAR     81  61  50 S15       29.92S
PECOS          CLEAR     76  60  56 E3        29.86S
PRESIDIO       FAIR      83  60  45 N8        29.91S
SEMINOLE       CLEAR     77  60  56 S10       29.94S
SNYDER         CLEAR     77  64  64 S10       29.90F
WINK           CLEAR     81  62  52 SE16      29.87F
$$
...OTHER STATIONS IN TEXAS...

CITY           SKY/WX    TMP DP  RH WIND       PRES   REMARKS
ABILENE        CLEAR     80  69  69 S15       29.87S
AMARILLO       CLEAR     77  57  50 SW20G29   29.87R
AUSTIN         PTCLDY    78  75  90 S8        29.93F
BROWNSVILLE    PTCLDY    80  78  94 SE6       29.88F
CORPUS CHRISTI MOCLDY    79  77  94 CALM      29.90S
DALLAS FTW     CLEAR     79  70  74 S16       29.89S
DEL RIO        CLEAR     83  72  69 SE13      29.88S
EL PASO        CLEAR     81  45  28 SW5       29.97S
HOUSTON INT    MOCLDY    75  75 100 CALM      29.94F
LUBBOCK        PTCLDY    78  61  55 S17       29.90S
SAN ANGELO     CLEAR     79  69  71 S14G25    29.89F
SAN ANTONIO    CLOUDY    80  74  81 S12       29.94F
WACO           CLOUDY    79  73  82 S15       29.92S
WICHITA FALLS  NOT AVBL
$$
...OTHER LOCATIONS IN NEW MEXICO...

CITY           SKY/WX    TMP DP  RH WIND       PRES   REMARKS
ALAMAGORDO     CLEAR     70  39  32 CALM      29.98F
ALBUQUERQUE    CLEAR     70  38  31 E5        30.07R
CANNON AFB     CLEAR     69  55  61 W6        29.95R
CLOVIS           N/A     70  55  60 SW9       29.97R
HOLLOMAN AFB   CLEAR     72  41  32 S5        29.96S
ROSWELL        CLEAR     73  44  35 S10       29.91S
RUIDOSO        CLEAR     64  34  32 W13       30.19F
SANTA FE       CLEAR     61  34  36 S3        30.11R
TRUTH OR CONSE CLEAR     75  40  28 W10       30.03R
TUCUMCARI      CLEAR     71  42  35 W7        29.87S
$$

USA.gov is the U.S. government's official web portal to all federal, state and local government web resources and services.